{"data":{"norad_id":45700,"intl_designator":"2020-035AV","name":"STARLINK-1400","alt_names":[],"object_type":"PAYLOAD","status":"ACTIVE","operator":null,"country":"US","launch_date":"2020-06-04","launch_site_code":"AFETR","launch_vehicle":null,"mission":null,"orbit_class":"UNKNOWN","rcs_meters":null,"size_class":null,"mass_kg":null,"dimensions":null,"purposes":["comms"],"wikipedia_slug":null,"has_3d_model":false,"image_url":null,"decayed_at":null,"tle_current":{"epoch":"2026-09-20T04:37:56.896896Z","epoch_age_seconds":44763,"freshness":"FRESH","line1":"1 45700U 20035AV  26263.19301964  .00113088  00000+0  42975-3 0  9998","line2":"2 45700  53.0363 143.6687 0004290 108.1599 251.9892 15.86782359349861","mean_motion":15.86782359,"eccentricity":0.000429,"inclination_deg":53.0363,"raan_deg":143.6687,"arg_perigee_deg":108.1599,"mean_anomaly_deg":251.9892,"bstar":0.00042975,"rev_number":34986,"period_min":90.749685477188,"perigee_km":308.44097247043,"apogee_km":314.18051863612,"semimajor_km":6689.4477455533,"source":"CELESTRAK","updated_at":"2026-09-20T09:00:38.453926Z"}}}